Weather in Zhernovets

Russia / Kursk Oblast     51°41′15″N   37°51′59″E
temp.,
°C
wind,
m/s
gust,
m/s
humid.,
%
clouds,
%
prec.,
mm/h
press.,
hPa
HPBL,
m
11 may, tue
tue1100:00+8nne8188783 0.0 1019632
03:00+9nne81887100 0.1 1017502
06:00+9nne81988100 0.1 1017603
09:00+13ne91581100 0.1 1017743
12:00+10e6129099 0.3 1019851
15:00+12e710635 0.4 10211297
18:00+12e712665 0.0 10221393
21:00+8e8137819 0.0 1023813
12 may, wed
wed1200:00+8e7137955 0.0 1024722
03:00+6ene5139184 0.0 1024334
06:00+7ene61481100 0.0 1024439
09:00+11e61070100 0.0 1023693
12:00+12ene6865100 0.0 10211045
15:00+14e685981 0.2 10181605
18:00+12ese6117675 1.1 1017526
21:00+10ese6148755 2.1 1017442
13 may, thu
thu1300:00+9ese41093100 0.3 1017258
03:00+9se2695100 0.8 1017234
06:00+9e3695100 0.8 1017179
09:00+12se3784100 1.7 1016342
12:00+18sse586549 0.2 10151362
15:00+19s696572 2.4 10151551
18:00+17ssw47795 1.6 1015514
21:00+13e118698 2.1 101510
14 may, fri
fri1400:00+14e3586100 0.1 101571
03:00+13se3990100 0.2 1015156
06:00+14ese41190100 1.4 1014246
09:00+19se6117680 1.4 1014552
12:00+23se8116299 0.0 10131308
15:00+24sse7106299 0.0 10121437
18:00+21s91473100 1.4 1012589
21:00+16ssw3786100 1.5 1011102
15 may, sat
sat1500:00+16ene3382100 9.8 101043
03:00+15ene3494100 12.6 101079
06:00+16ese4894100 8.0 1009223
09:00+19sse5784100 8.0 1010640
12:00+22ssw57631 0.0 10101188
15:00+23ssw68595 1.0 10101621
18:00+20ssw597399 0.5 1010620
21:00+15ssw348787 0.6 101164